RH
12 13 14 19 31 34 20 10 54 65 71 77 90 94 77 83 87 86 41 46 55 54 92 98 68 43 58 69 100 100 100 99 90 82 73 100 78 65 46 34 39 53 38 27 25 4 3 39 100 100 100 100 100 94
12 14 16 34 36 29 10 37 66 64 74 85 90 98 100 93 100 94 95 74 91 74 79 88 71 86 100 100 100 95 100 96 100 73 59 66 62 58 46 55 99 100 99 78 74 68 23 16 97 98 99 100 100 100
15 16 37 39 35 12 18 68 70 74 86 93 95 100 100 100 100 100 100 96 86 73 89 95 100 100 90 100 97 93 100 100 100 89 57 54 47 65 87 100 100 100 100 100 98 78 50 86 74 96 100 100 100 100
20 43 44 41 18 14 66 77 75 69 77 97 100 100 100 100 100 100 100 99 98 86 88 100 94 87 100 98 77 82 100 100 98 94 87 55 97 97 100 100 100 100 97 100 91 90 79 80 79 95 89 99 100 100
53 49 47 24 12 62 84 81 65 63 72 74 94 100 100 100 100 100 100 98 81 85 80 78 64 70 100 78 55 78 100 100 100 90 82 92 100 100 94 100 97 100 99 100 88 83 100 100 87 94 100 100 100 100
56 54 26 13 67 87 72 57 51 44 40 51 92 100 100 70 64 86 86 51 57 70 76 72 57 60 54 65 65 86 100 99 99 100 100 100 100 100 100 100 99 100 100 100 98 100 100 100 100 86 85 100 100 100
62 22 18 79 94 68 61 44 45 50 52 50 98 50 48 51 64 50 51 72 71 63 55 49 44 39 39 42 50 60 67 81 99 100 100 100 100 100 100 100 99 100 100 100 100 100 100 100 100 100 100 99 95 100
18 52 99 96 71 61 50 51 67 62 49 69 84 38 18 22 29 41 53 58 70 64 53 42 53 44 32 25 23 26 50 76 94 100 100 98 91 100 100 100 100 100 98 100 94 94 85 80 95 98 97 98 100 98
97 100 86 64 58 66 82 78 58 54 52 97 60 18 18 26 35 41 57 57 48 73 100 100 100 100 100 100 98 87 81 82 82 97 100 83 88 94 100 100 100 100 95 95 99 96 97 90 80 78 77 77 80 86
92 93 99 96 78 74 64 38 37 54 94 100 50 26 35 41 53 54 47 50 99 100 100 100 98 100 100 100 100 100 99 100 96 84 83 82 80 94 99 98 100 100 95 91 86 81 99 100 93 86 83 75 75 74
99 97 84 83 79 76 50 46 63 97 100 78 54 49 42 58 63 52 36 91 94 100 100 100 100 90 74 100 100 100 98 95 96 96 99 86 90 98 97 94 88 81 85 86 76 69 75 84 92 89 91 94 96 92
92 78 80 68 90 70 55 65 99 100 100 52 55 60 51 50 44 40 38 95 95 96 100 100 100 92 84 86 99 100 100 100 100 100 100 99 100 100 98 91 88 90 96 91 85 80 75 75 84 88 86 87 87 78
81 89 81 87 98 68 73 100 100 98 74 67 69 56 49 55 50 36 37 84 99 100 100 100 98 95 88 83 82 91 99 92 98 95 94 100 100 99 97 99 100 100 100 100 100 100 100 100 100 100 97 95 92 85
78 90 64 80 91 82 98 100 98 94 91 80 80 66 83 75 80 68 56 70 91 100 100 98 95 92 90 83 79 91 96 100 98 100 100 90 76 77 72 60 51 48 45 50 72 87 85 76 57 57 74 90 92 77
99 93 94 96 97 100 100 94 100 100 100 92 95 90 96 92 96 98 91 88 95 96 100 100 100 99 96 96 100 100 100 93 86 98 100 92 86 83 80 73 65 56 61 67 70 70 66 60 62 80 99 99 95 81
100 100 100 100 100 100 100 100 100 100 100 100 98 100 100 100 100 100 97 92 92 99 100 94 88 82 69 60 60 62 62 61 86 81 77 72 77 73 70 67 66 69 70 71 76 81 83 84 85 77 73 74 77 92
100 90 100 100 100 100 100 100 100 96 93 100 100 100 100 92 91 86 73 65 58 52 52 54 52 44 48 51 53 71 94 70 68 66 72 68 61 64 64 71 82 83 88 96 100 100 100 100 100 100 100 100 100 100
98 99 99 100 100 100 100 93 96 87 89 95 90 97 78 72 70 56 51 43 44 52 52 50 45 72 95 95 80 88 78 81 75 64 60 61 66 82 90 95 99 100 100 100 100 100 100 100 100 100 100 100 97 84
77 75 86 87 91 88 82 79 84 78 82 80 83 84 62 56 54 51 57 50 46 45 48 54 63 69 71 70 69 71 79 78 72 70 80 93 100 100 100 100 100 100 100 99 88 64 51 44 39 36 34 38 43 48
98 89 89 83 75 83 92 93 79 69 65 66 67 62 63 76 88 87 68 61 61 67 69 70 73 73 70 70 73 83 89 94 94 93 97 98 96 95 94 91 80 50 32 30 36 43 48 52 54 53 53 53 52 52
100 100 100 100 99 96 100 100 100 100 88 91 78 83 94 98 89 82 80 80 84 90 87 82 83 88 93 92 92 90 89 88 87 67 32 28 32 29 30 36 43 47 50 53 54 55 56 56 56 55 52 51 50 49
100 100 100 100 98 75 85 84 85 85 89 92 92 87 78 67 61 64 77 88 93 92 91 95 96 97 96 96 95 95 81 36 23 28 36 40 42 45 49 53 58 60 62 64 63 60 57 56 54 53 50 44 35 25
100 100 98 94 90 73 71 57 56 59 63 63 59 58 58 60 68 80 79 80 82 88 94 98 99 96 76 46 27 29 39 47 50 51 54 56 58 62 66 70 72 71 68 63 60 58 53 43 32 21 15 14 14 13
100 100 100 100 93 78 53 41 36 39 45 54 61 66 68 73 81 88 95 99 97 89 60 29 19 31 44 51 53 55 56 56 57 58 61 66 71 74 75 73 68 65 65 60 41 24 16 14 14 13 12 12 12 13
91 99 100 100 100 65 44 43 45 51 58 58 65 75 83 93 90 72 33 13 13 36 50 53 53 53 53 53 54 54 56 58 60 63 68 73 79 76 72 71 67 48 27 18 15 14 13 12 12 12 13 14 17 22
89 92 76 87 99 83 60 57 59 66 77 85 89 80 51 20 16 27 47 54 56 55 53 56 58 59 59 61 63 65 67 70 78 83 82 78 73 73 64 41 23 17 16 15 14 14 13 14 15 17 21 24 24 24
54 37 28 24 24 41 63 67 67 53 34 23 14 22 40 50 55 57 59 58 60 64 65 66 66 66 68 69 72 76 78 79 82 79 73 70 55 31 20 18 16 16 15 15 14 15 17 18 19 20 20 21 22 23
69 58 42 31 23 14 11 9 9 11 18 30 38 45 54 56 60 62 62 67 71 73 75 76 76 76 76 74 76 77 80 84 79 73 55 29 20 19 17 16 16 16 17 16 17 16 16 17 19 21 23 25 28 32
68 65 59 49 36 16 10 10 12 17 32 36 44 55 54 55 53 58 58 59 66 69 79 83 84 86 83 83 84 83 82 78 63 37 21 20 20 17 16 17 18 19 19 19 18 18 20 22 26 31 38 46 53 57
74 82 80 68 44 22 11 14 22 26 39 43 46 41 40 39 45 53 53 59 68 76 81 88 92 89 86 88 87 83 77 57 31 22 22 20 17 18 20 23 24 23 23 24 24 27 36 45 51 54 56 54 45 36
72 76 84 81 55 19 12 23 33 37 38 38 40 36 34 38 43 55 60 66 74 82 90 95 94 92 90 90 87 80 57 32 24 24 21 17 18 20 24 29 33 34 33 36 44 52 55 56 57 50 36 32 36 44
57 66 75 78 33 14 16 24 40 45 45 42 38 36 35 39 59 70 63 74 86 96 99 98 96 94 94 93 83 60 34 26 26 23 18 19 22 26 32 36 42 48 52 57 58 59 58 47 34 30 33 43 45 45
60 65 50 27 17 23 24 32 38 46 47 39 37 48 61 66 63 74 81 91 99 100 99 97 95 94 95 85 64 37 29 28 25 19 20 23 27 33 39 44 50 56 60 61 57 42 33 31 31 36 44 45 44 40
Wind_Speed
42 40 39 39 40 39 42 37 29 24 22 17 13 16 17 11 12 12 13 17 20 21 21 27 26 23 28 44 29 17 22 23 32 29 25 25 26 23 19 17 16 11 17 17 19 29 34 32 29 26 33 30 28 32
40 38 37 38 37 38 38 28 23 18 17 16 12 12 15 13 16 16 13 16 19 22 22 24 23 37 26 41 25 19 19 14 11 23 27 27 21 20 17 22 19 9 9 11 13 14 23 31 37 24 25 34 30 27
37 36 37 36 35 38 27 24 20 18 18 17 16 14 14 19 17 24 19 20 20 20 22 23 20 33 33 35 34 24 23 20 17 21 25 25 21 20 17 14 16 10 14 12 15 11 14 18 36 39 25 29 34 32
35 35 34 35 36 28 25 23 21 20 20 21 20 20 19 18 20 26 23 22 19 19 20 28 29 31 38 35 35 30 27 17 18 22 20 22 20 14 10 9 13 13 16 13 19 13 13 11 27 27 34 38 33 32
33 33 34 34 28 24 23 20 18 17 17 17 18 22 24 22 24 25 27 17 17 18 27 30 31 34 40 38 39 37 29 24 20 20 20 21 11 6 10 11 16 16 17 11 22 19 19 17 17 29 20 22 25 35
32 33 32 28 23 22 19 17 16 15 14 14 15 16 17 17 19 24 16 17 21 24 26 27 35 36 43 39 38 38 32 22 22 24 24 20 11 5 9 14 14 14 12 7 8 18 25 18 27 23 31 21 21 27
31 29 26 24 23 19 17 14 13 14 13 13 13 10 8 9 11 13 21 23 25 20 19 19 20 22 24 30 34 34 30 24 26 24 17 21 17 15 6 16 18 14 11 14 13 11 25 25 13 34 32 26 26 24
25 24 25 23 21 17 16 16 15 13 12 13 10 9 13 24 28 29 26 24 22 20 20 22 20 17 15 17 19 22 22 24 25 20 16 23 20 16 16 15 18 18 17 15 17 21 21 23 22 16 19 21 25 26
22 22 22 20 18 18 17 19 18 14 14 13 13 15 26 28 27 25 25 25 27 32 28 28 24 20 16 8 12 13 18 19 24 20 17 22 22 19 19 21 20 20 20 20 20 23 24 23 23 22 21 23 26 28
21 21 18 17 15 16 17 15 14 14 13 12 18 23 27 28 27 25 27 34 35 31 24 29 27 24 16 14 10 9 12 15 20 23 23 25 28 25 23 24 26 26 24 23 25 27 30 30 28 27 27 29 30 31
15 14 18 20 20 20 15 13 15 16 14 21 27 28 26 27 26 27 31 39 36 28 28 26 27 26 21 20 15 12 6 11 15 18 18 19 21 26 28 27 26 26 26 28 28 28 29 31 34 34 33 32 31 30
14 18 23 21 23 21 16 17 19 16 19 23 23 24 27 26 26 28 32 37 33 30 26 21 20 20 20 21 19 13 12 11 10 11 14 12 13 17 21 23 24 24 25 27 29 31 32 33 33 33 33 33 33 34
6 14 22 28 31 25 24 25 25 26 28 28 26 24 24 21 21 21 26 35 27 21 21 19 16 16 16 15 17 15 13 14 11 7 5 9 13 15 16 17 20 24 26 28 26 29 31 30 31 33 34 33 33 35
16 20 28 31 32 30 30 29 32 34 32 31 28 28 22 20 20 19 22 26 24 20 17 17 18 16 14 15 17 13 12 9 5 5 9 11 7 7 8 9 11 13 17 21 25 28 31 32 31 31 34 37 37 36
24 31 37 37 33 35 33 30 28 25 25 24 23 20 20 19 17 17 21 22 22 20 20 17 15 14 13 13 18 15 13 8 6 10 6 6 9 10 12 11 11 12 13 13 14 17 19 21 24 26 27 31 35 36
37 34 35 36 31 31 30 28 24 20 21 23 22 21 18 17 18 20 18 18 16 18 18 16 15 13 11 11 10 10 7 8 12 9 8 10 10 12 14 15 16 17 17 18 20 22 23 25 28 29 31 33 35 35
36 36 34 32 30 28 26 27 23 20 24 22 20 17 15 14 15 14 12 10 9 9 11 13 11 9 6 7 8 8 8 10 8 10 12 13 14 15 16 19 19 19 20 21 23 24 25 27 28 30 31 33 35 36
28 27 25 25 25 21 20 19 23 22 18 17 15 10 8 10 12 9 6 6 9 9 10 10 11 12 7 7 8 6 6 9 11 13 15 15 15 16 18 19 20 21 23 25 26 28 27 27 28 29 29 30 32 34
27 23 22 21 21 18 16 16 16 17 17 14 13 10 10 8 9 9 10 11 13 12 12 12 11 8 6 5 7 8 9 11 13 14 15 16 19 22 23 23 24 24 24 21 21 23 25 26 28 30 33 35 38 41
20 19 17 18 21 20 17 16 16 16 16 15 13 11 11 12 13 13 14 13 12 10 8 7 7 7 7 8 10 12 11 12 14 17 21 22 20 20 20 19 19 22 23 24 27 29 31 33 35 38 40 43 45 47
19 18 17 16 13 11 11 11 13 13 14 13 14 17 17 15 14 12 9 8 7 7 8 9 9 9 7 6 7 10 13 16 14 13 14 15 18 21 22 23 25 28 30 32 34 36 38 41 44 47 49 51 53 56
16 15 14 16 16 14 14 14 17 18 19 19 18 16 14 12 9 7 5 5 6 5 4 3 3 4 7 10 11 9 10 12 16 19 22 24 25 27 29 30 30 32 34 37 40 43 45 48 51 54 56 59 60 60
14 15 15 15 15 14 16 17 18 17 16 15 13 12 10 8 7 6 6 5 4 3 4 5 7 7 6 7 10 13 16 18 22 24 26 28 29 30 32 34 37 40 43 45 49 51 54 55 56 56 57 59 59 60
14 13 11 12 13 15 18 19 20 18 16 14 12 11 10 10 9 7 5 4 3 3 2 1 4 7 9 12 14 16 20 23 27 30 32 33 35 37 39 40 43 46 49 52 52 52 52 55 56 57 57 56 54 51
21 17 20 19 16 18 20 21 20 19 18 17 16 14 12 10 9 9 8 5 2 1 2 4 7 10 12 15 18 21 24 27 31 34 36 37 37 39 43 46 48 49 49 50 53 54 55 54 51 47 45 42 40 38
22 23 25 24 22 21 20 21 21 20 18 17 15 16 15 12 9 5 3 1 1 2 5 7 7 8 11 14 19 22 25 28 31 32 33 36 41 46 49 48 48 49 51 52 51 47 42 39 36 33 31 30 29 28
22 22 22 24 26 25 23 24 23 22 20 18 15 13 10 8 6 4 2 5 6 5 6 9 12 15 18 21 24 27 29 31 31 34 39 44 45 45 46 48 50 51 48 43 37 33 29 28 28 27 27 26 27 27
21 20 20 20 20 21 20 17 16 17 16 13 10 8 6 4 4 5 2 5 8 12 15 18 21 24 26 29 31 32 32 33 38 43 45 44 44 46 49 49 47 43 37 32 29 29 28 28 27 26 26 26 25 25
18 16 14 13 12 12 13 13 11 9 8 6 5 5 5 5 3 6 9 12 16 19 21 24 27 29 32 34 35 34 35 40 44 44 44 46 48 49 48 45 39 34 31 29 28 27 27 26 26 25 25 25 25 26
14 11 10 10 9 9 8 6 6 6 6 6 5 5 6 6 8 11 14 16 19 23 25 28 31 33 35 36 35 37 41 44 43 44 46 48 49 46 41 36 33 31 29 28 28 27 26 25 24 25 26 27 28 28
10 8 7 5 5 7 7 7 7 6 6 7 8 9 10 11 13 16 19 21 25 28 29 31 34 36 37 36 38 42 44 44 44 46 48 48 45 39 34 32 31 29 28 26 25 24 25 26 27 28 28 27 26 27
10 10 9 7 8 9 9 8 8 9 10 11 13 14 15 17 19 23 24 26 30 31 32 34 36 37 37 39 43 45 44 44 47 49 48 44 38 34 31 30 28 26 26 26 26 27 27 28 28 26 25 26 28 30
11 9 8 7 7 8 9 10 11 13 14 15 16 18 20 23 25 27 29 32 33 33 34 36 36 37 39 43 45 44 45 47 49 48 43 38 34 32 31 30 29 28 28 28 29 29 28 25 25 25 27 29 30 32
Wind_Direction
261 267 275 282 286 289 292 295 290 290 293 281 270 268 260 264 288 312 253 256 244 235 215 217 225 241 208 200 206 174 194 206 220 223 218 216 213 215 216 209 207 211 227 230 234 233 228 214 196 201 220 237 234 259
258 266 274 279 281 284 292 281 278 284 280 271 265 278 289 284 275 290 299 268 258 236 211 226 236 192 198 202 187 182 184 184 219 215 207 212 209 208 203 188 189 264 217 220 228 238 227 218 206 200 210 213 217 217
256 264 270 272 275 285 274 265 263 267 266 264 266 269 276 276 257 264 280 274 259 228 205 217 198 203 193 187 191 183 169 158 187 207 212 214 212 198 194 203 211 235 220 224 227 229 238 211 216 215 211 222 210 214
252 259 262 266 277 269 258 255 264 266 266 263 262 265 272 274 247 251 264 271 246 210 217 199 196 195 186 186 193 188 191 161 187 197 205 181 170 188 214 205 229 219 212 216 225 233 230 219 212 219 227 228 219 225
247 252 257 268 263 250 247 254 257 261 261 267 260 256 262 263 236 239 255 243 216 191 182 193 194 189 180 180 186 188 193 192 200 198 181 173 166 132 244 220 215 221 218 201 222 234 225 229 222 206 215 245 249 244
242 250 261 254 238 237 236 243 249 254 262 269 261 264 259 250 229 230 241 190 171 172 183 188 188 192 190 190 190 196 203 199 189 183 176 179 185 103 177 216 220 234 252 276 268 215 227 203 216 218 228 221 223 250
243 253 243 227 225 220 226 234 247 255 259 254 258 248 229 196 184 168 157 157 162 164 163 167 177 183 187 192 197 201 208 202 199 192 195 207 221 217 189 211 224 229 196 226 235 217 222 223 248 216 218 247 234 251
243 230 219 214 211 217 217 227 237 248 247 240 228 211 173 158 150 152 158 154 147 145 144 138 132 143 158 180 191 196 194 201 201 202 215 215 226 228 225 233 234 235 236 241 246 259 263 268 270 262 250 255 253 255
214 206 202 199 206 215 226 234 236 235 229 215 193 182 163 156 153 149 149 147 140 136 130 129 133 137 143 179 166 184 195 201 205 213 223 224 226 235 240 243 247 251 248 244 248 260 266 272 272 270 264 258 257 260
196 192 194 201 205 217 219 234 231 213 200 180 167 164 158 156 151 151 148 143 141 142 134 133 129 126 140 150 149 161 181 212 218 226 234 230 229 239 251 251 253 258 266 267 260 260 263 266 272 275 272 268 265 265
199 218 211 216 218 203 204 206 183 180 176 171 172 173 163 156 157 157 153 151 147 146 139 143 142 145 157 161 177 179 208 210 217 227 241 243 239 243 246 256 260 260 266 267 270 268 269 271 273 275 275 275 271 269
233 223 211 207 188 184 182 160 164 164 162 167 172 168 166 160 160 164 160 157 152 156 157 155 155 161 169 175 184 197 209 229 239 238 242 244 241 243 243 250 255 257 254 250 255 258 260 260 263 266 268 269 270 271
177 188 186 182 176 168 157 156 155 150 161 167 170 168 158 160 170 174 169 168 160 158 165 172 176 183 190 196 194 208 215 224 226 237 247 234 232 240 254 260 259 255 256 254 256 255 259 263 264 266 266 267 272 273
134 127 146 152 156 151 149 149 146 146 151 150 149 150 159 150 133 143 157 171 180 187 187 188 194 196 202 204 207 208 215 219 218 193 208 239 259 278 290 300 298 287 279 275 273 273 273 278 278 275 272 270 272 275
119 124 126 125 134 141 149 148 143 148 159 160 150 130 128 139 139 153 161 169 178 187 190 188 195 200 208 212 217 225 229 220 183 214 235 260 276 292 299 293 299 303 301 296 291 288 288 280 272 273 274 274 273 275
118 118 121 128 131 133 141 149 149 147 146 144 153 140 130 142 150 154 158 166 169 178 186 196 205 218 232 236 233 239 238 215 214 226 262 273 276 287 289 283 284 285 280 280 281 280 278 276 275 275 276 276 278 280
119 123 123 119 126 127 141 152 158 155 158 147 142 142 143 140 148 160 160 163 178 189 203 212 211 216 205 196 194 184 196 202 235 266 273 271 275 281 280 281 283 280 280 283 284 284 283 282 281 281 280 280 282 284
123 121 115 123 128 132 127 144 163 162 160 156 150 146 158 169 184 182 185 194 191 187 176 177 175 168 174 184 194 200 244 274 278 275 275 280 279 283 286 289 289 290 291 291 288 286 284 281 280 280 280 281 282 284
126 130 130 126 138 144 145 145 156 170 180 180 187 201 185 183 188 188 185 178 176 173 166 165 171 179 191 219 240 262 275 280 279 277 274 282 290 293 294 292 290 290 290 287 285 285 285 285 285 285 285 285 286 288
129 134 137 144 148 150 147 150 161 167 172 175 181 189 178 167 162 158 151 146 151 158 165 184 209 226 243 257 264 268 275 286 295 298 299 298 296 294 292 289 285 285 286 287 289 289 289 290 289 289 290 290 290 290
148 154 155 157 157 147 155 158 165 169 167 163 163 155 150 147 145 146 153 158 167 187 202 214 230 239 253 273 293 296 296 298 299 296 294 291 289 287 288 290 291 293 293 293 293 295 296 297 298 298 297 297 296 296
161 162 164 167 171 165 163 166 165 162 158 157 158 159 160 163 170 173 177 176 173 179 188 219 250 263 273 284 287 289 293 297 300 298 295 294 295 296 294 295 297 299 300 301 301 301 301 300 298 297 297 296 295 294
157 168 175 180 184 180 177 177 175 172 169 169 168 171 174 178 179 164 160 170 187 212 244 259 271 282 287 298 302 301 299 295 294 295 296 296 296 298 302 305 305 305 305 304 303 302 301 299 298 297 296 296 296 295
153 157 166 176 177 177 174 177 177 174 174 175 175 170 160 159 163 166 177 202 199 189 183 284 299 303 302 299 297 298 298 296 297 298 299 301 304 305 305 304 303 303 303 302 301 301 300 299 298 298 297 297 297 297
118 109 106 109 126 141 149 150 149 151 152 153 154 155 161 162 152 139 140 144 143 285 305 313 311 300 294 291 290 290 292 294 295 297 299 301 304 305 304 304 305 306 305 305 305 304 304 303 303 303 302 301 300 300
118 113 105 105 109 127 133 137 141 142 144 147 147 144 141 140 142 139 137 134 290 284 282 278 291 311 305 301 300 302 303 304 303 305 307 309 308 307 309 309 310 309 308 308 308 309 309 310 311 312 313 312 312 312
132 128 122 116 114 113 121 128 131 133 134 136 139 140 142 140 132 151 202 232 242 272 315 330 337 338 333 327 321 317 314 312 311 312 312 310 311 312 312 311 311 311 312 312 312 313 314 317 318 319 319 318 317 317
137 135 134 132 128 125 124 124 127 133 135 134 137 140 138 166 203 216 257 334 338 338 339 338 337 334 331 329 325 322 319 317 316 314 314 316 316 316 315 314 314 315 315 314 314 314 315 315 316 317 318 318 318 318
122 119 120 128 133 134 134 136 136 139 140 151 170 195 214 236 290 330 330 332 335 333 330 327 326 326 325 324 323 321 320 319 317 317 318 319 319 318 318 318 318 317 315 314 314 315 316 316 317 318 319 320 320 319
141 133 125 119 137 145 143 150 167 183 194 207 222 244 269 293 307 319 320 321 321 322 321 320 319 320 322 322 321 320 321 321 320 321 321 320 320 320 320 321 320 318 316 315 315 317 317 318 319 318 317 317 316 317
174 172 173 169 164 168 179 193 206 216 229 246 262 271 285 297 305 313 313 316 318 319 316 315 317 320 320 320 320 321 322 322 322 321 322 321 322 321 321 323 322 320 319 319 318 318 317 317 317 317 317 318 320 321
198 201 206 211 199 199 206 217 232 244 255 264 272 285 293 300 306 311 311 313 316 314 315 316 319 319 319 319 321 323 322 322 322 323 323 323 322 321 322 323 323 323 322 320 318 317 317 317 317 318 319 320 322 323
211 214 226 229 226 220 229 241 251 260 268 274 282 290 296 302 305 307 309 313 313 314 315 317 318 318 318 320 322 322 322 322 323 323 323 323 322 321 321 321 320 320 319 319 318 317 317 318 318 319 319 321 322 322